DELTA 1 DEB, 10841

Orbit data source: Space-Track

DELTA 1 DEB, 10841 is space debris in SSO originally from a launch on Thu, 29 Jul 1976 UTC launched from the Air Force Western Test Range (AFWTR). Debris objects in space refer to the collection of defunct objects orbiting the Earth. Examples of debris include non-operational satellites, rocket bodies, and fragments generated from explosions, collisions, or faulty payload assembly.

Loading next visibility...
Identifier
10841, 1976-077CM
Orbit
SSO
Country
Flag of USUS
Related business
Manufacturer
Unknown
Mission
Spacecraft
Bus & Motor
Unknown
Mass
Unknown
Launch date (UTC)
1976-07-29 (50 years ago)
Launch vehicle
Unknown
Launch site
Air Force Western Test Range (AFWTR)
Object type
Payload
Rocket body
Debris
Shape & HBR
Unknown shape, 0.1 m
Radar Cross Section
Medium (>0.1 m² and <1 m²)

Expand to show TLE details & history
Last TLE update: 2 days ago

TLE from 2 days ago
0 DELTA 1 DEB
1 10841U 76077CM  26171.46616543 -.00000015  00000-0  19033-3 0  9999
2 10841 101.9482 157.0323 0066968 110.5588  41.9161 12.53071949280053
Epoch: 2026-06-20T11:11Z
TLE epoch observation values (Epoch: 2026-06-20T11:11:16.693Z)
Latitude
26.41353°
Longitude
-93.46422°
Altitude
1,415.719 km
Speed
7.173 km/s
True Right ascension
22h 52m 08s
True Declination
26° 17' 18"
Sunlit
Object was in daylight at epoch
Visualization orbit readout
Latitude
Unknown
Longitude
Unknown
Altitude
Unknown
Speed
Unknown
Apparent Right ascension
Unknown
Apparent Declination
Unknown
Sunlit
N/A
Visualization observer readout
Local Sidereal Time
02:17:35
Azimuth
Unknown
Elevation
Unknown
Doppler factor
Unknown
Orbital elements
Apogee altitude
1,501.645 km
Perigee altitude
1,396.808 km
Semi-major axis
7,827.363 km
Eccentricity
0.0067
Inclination
101.9482°
RAAN
157.0323°
Arg. of periapsis
110.5588°
True anomaly
42.43196°
Mean anomaly
41.9161°
Eccentric anomaly
42.17371°
Mean motion
3.13415 °/min
Orbital period
114.86 mins
BSTAR
0.00019033
Loading maneuver chart data...
Computing Atmospheric mass density...
Loading historical data...
Loading historical data...
Loading historical data...
Loading historical data...
Loading historical data...
Loading historical data...
Loading historical data...

Documentation

Showing up to 5 results
|